When you browse on this site, cookies collect data to enhance your experience and personalize the content and advertising you see.
Visit our Privacy Policy to learn more. By continuing to use the site, you agree to this use of cookies and data.
  • In Czech Republic
  • List of Countries
  • For 7 days
  • Water Temperature
  • Satellite Maps
  • Weather Map
  • Weather Widgets
  • user-avatar
    Login

    Hourly Weather Córdoba

    Today, 17 January, Thursday

    Time Temperature Precipitation Wind Pressure Humidity
    00:00 +25°C° 0 mm 1 mps 721 mmHg 71%
    01:00 +24°C° 0 mm 1 mps 721 mmHg 74%
    02:00 +24°C° 0 mm 1 mps 722 mmHg 75%
    03:00 +24°C° 0.1 mm 2 mps 722 mmHg 77%
    04:00 +22°C° 0.1 mm 3 mps 722 mmHg 78%
    05:00 +22°C° 0.1 mm 4 mps 723 mmHg 80%
    06:00 +21°C° 0.3 mm 5 mps 723 mmHg 82%
    07:00 +18°C° 0.3 mm 7 mps 724 mmHg 85%
    08:00 +17°C° 0.3 mm 8 mps 724 mmHg 87%
    09:00 +16°C° 0.5 mm 8 mps 725 mmHg 87%
    10:00 +15°C° 0.5 mm 8 mps 725 mmHg 86%
    11:00 +14°C° 0.5 mm 7 mps 726 mmHg 86%
    12:00 +14°C° 0.7 mm 7 mps 726 mmHg 86%
    13:00 +15°C° 0.7 mm 7 mps 726 mmHg 85%
    14:00 +15°C° 0.7 mm 7 mps 726 mmHg 85%
    15:00 +14°C° 3 mm 7 mps 726 mmHg 86%
    16:00 +14°C° 3 mm 7 mps 726 mmHg 88%
    17:00 +12°C° 3 mm 7 mps 726 mmHg 89%
    18:00 +12°C° 0.8 mm 7 mps 727 mmHg 89%
    19:00 +13°C° 0.8 mm 6 mps 727 mmHg 89%
    20:00 +13°C° 0.8 mm 6 mps 728 mmHg 89%
    21:00 +11°C° 1.5 mm 6 mps 728 mmHg 88%
    22:00 +12°C° 1.5 mm 5 mps 728 mmHg 87%
    23:00 +12°C° 1.5 mm 5 mps 728 mmHg 86%

    Tomorrow, 18 January, Friday

    Time Temperature Precipitation Wind Pressure Humidity
    00:00 +12°C° 0 mm 4 mps 728 mmHg 84%
    01:00 +12°C° 0 mm 4 mps 728 mmHg 82%
    02:00 +12°C° 0 mm 3 mps 728 mmHg 80%
    03:00 +12°C° 0 mm 3 mps 728 mmHg 79%
    04:00 +12°C° 0 mm 3 mps 728 mmHg 78%
    05:00 +12°C° 0 mm 3 mps 728 mmHg 77%
    06:00 +13°C° 0 mm 3 mps 728 mmHg 75%
    07:00 +14°C° 0 mm 3 mps 728 mmHg 73%
    08:00 +16°C° 0 mm 3 mps 729 mmHg 71%
    09:00 +18°C° 0 mm 3 mps 729 mmHg 65%
    10:00 +20°C° 0 mm 4 mps 729 mmHg 60%
    11:00 +22°C° 0 mm 4 mps 729 mmHg 55%
    12:00 +23°C° 0 mm 4 mps 728 mmHg 53%
    13:00 +23°C° 0 mm 4 mps 728 mmHg 52%
    14:00 +25°C° 0 mm 4 mps 727 mmHg 51%
    15:00 +25°C° 0 mm 4 mps 727 mmHg 52%
    16:00 +25°C° 0 mm 4 mps 726 mmHg 54%
    17:00 +25°C° 0 mm 4 mps 726 mmHg 55%
    18:00 +22°C° 0 mm 3 mps 726 mmHg 60%
    19:00 +21°C° 0 mm 2 mps 726 mmHg 65%
    20:00 +21°C° 0 mm 1 mps 727 mmHg 69%
    21:00 +20°C° 0 mm 1 mps 727 mmHg 71%
    22:00 +19°C° 0 mm 1 mps 727 mmHg 73%
    23:00 +17°C° 0 mm 0 mps 728 mmHg 75%

    Day after tomorrow, 19 January, Saturday

    Time Temperature Precipitation Wind Pressure Humidity
    00:00 +16°C° 0 mm 0 mps 728 mmHg 77%
    01:00 +16°C° 0 mm 0 mps 727 mmHg 79%
    02:00 +15°C° 0 mm 0 mps 727 mmHg 82%
    03:00 +15°C° 0 mm 0 mps 727 mmHg 82%
    04:00 +14°C° 0 mm 0 mps 727 mmHg 83%
    05:00 +14°C° 0 mm 0 mps 727 mmHg 83%
    06:00 +18°C° 0 mm 1 mps 728 mmHg 77%
    07:00 +19°C° 0 mm 1 mps 728 mmHg 70%
    08:00 +21°C° 0 mm 1 mps 728 mmHg 63%
    09:00 +23°C° 0 mm 2 mps 728 mmHg 58%
    10:00 +24°C° 0 mm 3 mps 728 mmHg 52%
    11:00 +26°C° 0 mm 3 mps 728 mmHg 47%
    12:00 +27°C° 0 mm 4 mps 727 mmHg 46%
    13:00 +28°C° 0 mm 4 mps 727 mmHg 44%
    14:00 +28°C° 0 mm 5 mps 726 mmHg 43%
    15:00 +28°C° 0 mm 5 mps 726 mmHg 45%
    16:00 +28°C° 0 mm 5 mps 725 mmHg 47%
    17:00 +27°C° 0 mm 5 mps 725 mmHg 50%
    18:00 +25°C° 0 mm 4 mps 725 mmHg 56%
    19:00 +22°C° 0 mm 3 mps 725 mmHg 62%
    20:00 +21°C° 0 mm 3 mps 725 mmHg 68%
    21:00 +20°C° 0 mm 2 mps 725 mmHg 71%
    22:00 +19°C° 0 mm 2 mps 726 mmHg 74%
    23:00 +18°C° 0 mm 2 mps 726 mmHg 77%

    20 January, Sunday

    Time Temperature Precipitation Wind Pressure Humidity
    00:00 +18°C° 0 mm 2 mps 726 mmHg 81%
    01:00 +17°C° 0 mm 2 mps 725 mmHg 84%
    02:00 +17°C° 0 mm 2 mps 725 mmHg 87%
    03:00 +17°C° 0 mm 2 mps 725 mmHg 89%
    04:00 +17°C° 0 mm 2 mps 724 mmHg 90%
    05:00 +17°C° 0 mm 2 mps 724 mmHg 92%
    06:00 +18°C° 0 mm 2 mps 724 mmHg 86%
    07:00 +20°C° 0 mm 3 mps 724 mmHg 80%
    08:00 +21°C° 0 mm 4 mps 725 mmHg 73%
    09:00 +23°C° 0 mm 4 mps 724 mmHg 67%
    10:00 +25°C° 0 mm 4 mps 724 mmHg 61%
    11:00 +27°C° 0 mm 5 mps 724 mmHg 54%
    12:00 +28°C° 0 mm 5 mps 723 mmHg 52%
    13:00 +29°C° 0 mm 6 mps 723 mmHg 50%
    14:00 +30°C° 0 mm 6 mps 722 mmHg 48%
    15:00 +29°C° 0 mm 6 mps 722 mmHg 50%
    16:00 +29°C° 0 mm 6 mps 721 mmHg 52%
    17:00 +28°C° 0 mm 6 mps 720 mmHg 53%
    18:00 +27°C° 0 mm 5 mps 721 mmHg 60%
    19:00 +25°C° 0 mm 4 mps 721 mmHg 66%
    20:00 +22°C° 0 mm 3 mps 721 mmHg 73%
    21:00 +21°C° 0 mm 2 mps 722 mmHg 76%
    22:00 +21°C° 0 mm 2 mps 722 mmHg 79%
    23:00 +20°C° 0 mm 2 mps 722 mmHg 83%

    21 January, Monday

    Time Temperature Precipitation Wind Pressure Humidity
    00:00 +20°C° 0 mm 2 mps 722 mmHg 84%
    01:00 +20°C° 0 mm 2 mps 722 mmHg 86%
    02:00 +19°C° 0 mm 2 mps 721 mmHg 87%
    03:00 +19°C° 0 mm 2 mps 721 mmHg 87%
    04:00 +19°C° 0 mm 2 mps 721 mmHg 87%
    05:00 +19°C° 0 mm 2 mps 721 mmHg 86%
    06:00 +21°C° 0 mm 2 mps 722 mmHg 78%
    07:00 +24°C° 0 mm 2 mps 722 mmHg 70%
    08:00 +26°C° 0 mm 2 mps 723 mmHg 62%
    09:00 +28°C° 0 mm 2 mps 723 mmHg 54%
    10:00 +30°C° 0 mm 2 mps 723 mmHg 47%
    11:00 +33°C° 0 mm 3 mps 723 mmHg 40%
    12:00 +34°C° 0 mm 3 mps 722 mmHg 37%
    13:00 +35°C° 0 mm 3 mps 722 mmHg 35%
    14:00 +36°C° 0 mm 3 mps 721 mmHg 33%
    15:00 +36°C° 0 mm 4 mps 721 mmHg 35%
    16:00 +35°C° 0 mm 4 mps 720 mmHg 38%
    17:00 +35°C° 0 mm 5 mps 720 mmHg 40%
    18:00 +33°C° 0 mm 4 mps 720 mmHg 48%
    19:00 +30°C° 0 mm 3 mps 720 mmHg 56%
    20:00 +28°C° 0 mm 3 mps 720 mmHg 63%
    21:00 +27°C° 0 mm 3 mps 721 mmHg 67%
    22:00 +26°C° 0 mm 2 mps 721 mmHg 70%
    23:00 +25°C° 0 mm 2 mps 721 mmHg 74%

    22 January, Tuesday

    Time Temperature Precipitation Wind Pressure Humidity
    00:00 +25°C° 0 mm 2 mps 721 mmHg 76%
    01:00 +24°C° 0 mm 2 mps 720 mmHg 78%
    02:00 +24°C° 0 mm 1 mps 720 mmHg 80%
    03:00 +23°C° 0 mm 1 mps 720 mmHg 82%
    04:00 +23°C° 0 mm 2 mps 720 mmHg 83%
    05:00 +23°C° 0 mm 2 mps 720 mmHg 85%
    06:00 +25°C° 0 mm 2 mps 720 mmHg 78%
    07:00 +27°C° 0 mm 3 mps 720 mmHg 71%
    08:00 +29°C° 0 mm 4 mps 721 mmHg 64%
    09:00 +32°C° 0 mm 4 mps 721 mmHg 58%
    10:00 +34°C° 0 mm 5 mps 720 mmHg 52%
    11:00 +36°C° 0 mm 6 mps 720 mmHg 46%
    12:00 +36°C° 0 mm 6 mps 720 mmHg 44%
    13:00 +38°C° 0 mm 6 mps 719 mmHg 42%
    14:00 +39°C° 0 mm 6 mps 719 mmHg 40%
    15:00 +39°C° 0 mm 6 mps 718 mmHg 40%
    16:00 +39°C° 0 mm 6 mps 718 mmHg 40%
    17:00 +39°C° 0 mm 5 mps 717 mmHg 40%
    18:00 +36°C° 0 mm 5 mps 718 mmHg 46%
    19:00 +34°C° 0 mm 4 mps 718 mmHg 52%
    20:00 +31°C° 0 mm 3 mps 718 mmHg 58%
    21:00 +30°C° 0.7 mm 3 mps 718 mmHg 65%
    22:00 +29°C° 0.7 mm 2 mps 719 mmHg 72%
    23:00 +28°C° 0.7 mm 1 mps 719 mmHg 79%
    Show more